Погода в Чаре

Хотите узнать прогноз погоды в Чаре? Тогда Вам сюда: Погода в Чаре

Поиск расширенной информации на нашем сайте:

Полезная информация:

Новости сайта



02.01.2020
Опубликован Долгосрочный прогноз погоды по городам России и ближнего зарубежья на январь 2020 года.
Карты: Прогноз на январь и февраль 2020 года, Сравнение прогнозируемой аномалии приземной температуры воздуха на январь 2020 года по разным моделям.




Погода в Чаре - сегодня

Время (UTC), дата Ветер
(°,м/с) 
Видим.   Явления Облачность Т
(°С)
Тd
(°С)
f(%) Тe
(°С)
Pmin
(гПа)
dP
(гПа)
Po
(мм)
O2
(г/м3)
Тmin Tmax R s Состояние
почвы
00 30.11.20 тихо ()   20000 м    1/0 средняя 
[Ac lent]
-34.1 -37.6 71 -34  1045.1  -0.2  709  328  -34.2      17  равномерный
сухой снег
100% 
03 30.11.20 тихо ()   20000 м    ясно 
-25.9 -29 75 -26  1041  -0.6  708  317  -34.3         
06 30.11.20 040 (СВ) 20000 м    ясно 
-23 -26.9 70 -23  1038.3  -1.4  707  313           
09 30.11.20 тихо ()   20000 м    3/0 средняя 
[Ac lent]
-28.9 -31.7 77 -29  1041.3  0.5  708  321           
12 30.11.20 тихо ()   50000 м    3/0 средняя, верхняя 
[Ac lent|Ci fib]
-31.6 -34.9 73 -32  1042.1  -0.3  707  324    -22.1       
15 30.11.20 110 (В) 20000 м    4/0 верхняя 
[Ci fib]
-33.5 -36.9 71 -34  1041.8  -0.9  707  327           
18 30.11.20 тихо ()   20000 м    9/0 верхняя 
[Ci]
-32.1 -35.5 72 -32  1040.1  -1  706  324           
21 30.11.20 240 (ЮЗ) 20000 м    10/0 средняя, верхняя 
[Ac lent|Ci fib]
-30.7 -34.1 72 -31  1038.5  -0.9  705  322           
00 01.12.20 тихо ()   20000 м    9/0 средняя, верхняя 
[Ac lent|Ci fib]
-31.1 -34.3 73 -31  1038.8  0.1  705  323  -34.5      17  равномерный
сухой снег
100% 
03 01.12.20 тихо ()   20000 м    8/0 средняя, верхняя 
[Ac lent|Ci fib]
-26.3 -29.2 76 -26  1036.1  -0.6  705  316           
06 01.12.20 070 (В) 20000 м    4/0 верхняя 
[Ci fib]
-23.8 -27.2 73 -24  1034.2  -0.8  704  313           
09 01.12.20 080 (В) 20000 м    4/0 средняя, верхняя 
[Ac lent|Ci fib]
-27.8 -30.5 78 -28  1035.6  -0.2  704  318           
12 01.12.20 300 (СЗ) 50000 м    3/0 средняя, верхняя 
[Ac lent|Ci fib]
-30.4 -33.5 74 -31  1037  0.3  704  321    -23.5       
15 01.12.20 180 (Ю) 20000 м    6/0 верхняя 
[Ci fib]
-28 -31 76 -29  1034.9  -1  704  318           
18 01.12.20 110 (В) 20000 м    8/0 верхняя 
[Ci fib]
-27 -29.9 76 -28  1033  -1.4  703  316           
21 01.12.20 020 (С) 20000 м    9/0 верхняя 
[Ci fib]
-27 -29.9 76 -30  1030.8  -2  701  315           
00 02.12.20 110 (В) 20000 м    10/0 средняя 
[Ac As]
-23.6 -26.4 78 -24  1029.4  701  311  -30.7      17  равномерный
сухой снег
100% 
03 02.12.20 100 (В) 20000 м    10/3 1500 м средняя, верхняя 
[Sc|Ac lent|Ci fib]
-18.1 -21.2 77 -18  1028.3  702  304           
06 02.12.20 280 (З) 20000 м    10/4 1500 м средняя, верхняя 
[Sc|Ac trans|Ci fib]
-14.4 -18.5 71 -14  1026.3  -0.6  701  300           
09 02.12.20 200 (Ю) 20000 м    10/8 1500 м кучево-дожд., средняя 
[Cb cap|Ac As]
-9.5 -16.9 55 -12  1023.2  -1.2  701  294           
12 02.12.20 150 (ЮВ) 50000 м    10/6 1500 м кучево-дожд., средняя 
[Cb cap|As trans]
-8 -16 53 -11  1021  -1.6  699  291    -7.4       
15 02.12.20 200 (Ю) 20000 м    10/4 1500 м кучево-дожд., средняя 
[Cb cap|As trans]
-6.2 -14.5 52 -9  1018.4  -1.7  698  289           
18 02.12.20 300 (СЗ) 20000 м    10/5 1500 м кучево-дожд., средняя 
[Cb cap|Ac As]
-7.1 -15.7 50 -10  1019.6  0.8  699  290           
21 02.12.20 320 (СЗ) 4{12}  50000 м    10/3 1500 м средняя, верхняя 
[Sc|Ac lent|Ci fib]
-7.6 -17.1 46 -11  1020.5  0.6  699  291           
00 03.12.20 230 (ЮЗ) 20000 м    8/4 1500 м средняя, верхняя 
[Sc|Ac lent|Ci fib]
-9.3 -18 49 -12  1020.4  0.6  699  293  -11      17  равномерный
сухой снег
100% 
Время (UTC), дата Ветер
(°,м/с) 
Видим.   Явления Облачность Т
(°С)
Тd
(°С)
f(%) Тe
(°С)
Pmin
(гПа)
dP
(гПа)
Po
(мм)
O2
(г/м3)
Тmin Tmax R s Состояние
почвы

Для получения пояснительной информации подведите курсор к названию столбца.

ПОГОДА в Чаре - архив

Всё, что Вы хотите узнать о погоде в Чаре - удобно и подробно!

Выберите нужную дату (начиная с 1 января 2019* года) и нажмите кнопку "Найти".
Будут отображены архивные сводки погоды по пункту Чара, начиная с указанной даты.


Отображать данные в формате CSV (для использования в таблицах Excel)


Внимание! Наш архив погоды предназначен исключительно для личного некоммерческого использования в познавательных целях. Если Вам необходимы официальные справки о состоянии погоды (для производственных, юридических, коммерческих и т.п. целей), обращайтесь в органы Росгидромета.

*Примечание: данная дата относится к архиву по метеостанциям СССР (Россия, СНГ, Балтия).
Архив по метеостанциям Зарубежной Европы и Азии (кроме Китая) хранится 10 дней, по другим регионам земного шара (Китай, Африка, Америка, Австралия, Океания) - 1 день.

Чара - район местоположения метеостанции


Название, широта, долгота, высота метеостанции:
Чара 56.9°ш. 118.3°д. 711 м над ур. моря [Российская Федерация]

Дополнительная информация

В oтличие oт бoльшинства пoгoдных сайтoв мы публикуем пoдрoбную метеoинфoрмацию в детальнoм прoфессиoнальнoм фoрмате.

Характеристики температуры и влажнoсти вoздуха измеряются на высoте 2 м в тени вдали oт зданий и деревьев.
Скoрoсть ветра измеряется на высoте 10 м (на урoвне рoста челoвека скoрoсть ветра ниже в 1.5-2 раза). Если метеoстанция нахoдится в гoрoде или в лесу, тo скoрoсть ветра занижена на 2-4 м/с пo сравнению с oткрытым местoм. Скoрoсть ветра над акватoриями крупных рек и oзёр, а также на вершинах хoлмoв на 2-5 м/с выше, чем в oбычных услoвиях.
Атмoсфернoе давление в разных тoчках местнoсти мoжет значительнo oтличаться oт давления на метеoстанции, в зависимoсти oт услoвий рельефа (при пoдъёме на 10 м давление пoнижается примернo на 1 мм рт.ст.).